Location: Bukit Lungun
(2.6833°N, 113.9667°E)
Time: 11:10:10
(UTC+00:00)

ARIANE 5 R/B - Pass Details

Date: 02 March 2021
Orbit: 572 x 35086 km, 5.4° (Epoch: 20 April)

Event Time Altitude Azimuth Distance (km) Brightness Sun altitude
Rises 12:24:03 0° 252° (WSW) 2,755 7.6 -27.1°
Reaches altitude 10° 12:25:47 10° 245° (WSW) 1,905 6.4 -27.5°
Enters shadow 12:28:46 46° 186° (S) 1,020 4.1 -28.2°
